Wind_Speed
44 44 45 46 46 46 46 46 46 46 46 46 46 47 46 44 44 43 43 45 46 46 46 46 45 45 42 40 39 38 37 37 36 35 35 34 34 34 35 37 37 37 36
41 41 42 43 44 45 46 46 46 47 48 48 48 49 46 44 45 45 45 46 47 48 48 48 48 46 44 42 42 40 38 37 37 37 37 35 35 37 37 38 39 39 39
38 38 39 40 41 42 43 44 45 46 48 49 49 49 48 46 46 46 46 46 45 47 49 48 48 47 45 43 42 41 39 38 37 38 38 37 37 38 38 39 40 40 40
38 38 38 39 40 41 42 44 45 46 47 48 48 48 46 46 45 47 48 48 47 46 46 47 47 46 42 39 38 37 36 35 36 36 38 39 39 39 38 37 39 39 40
39 39 40 40 41 42 43 44 45 46 47 48 49 49 49 50 49 50 49 49 47 46 46 44 43 41 38 36 35 34 34 34 35 36 37 38 38 39 38 36 36 37 38
35 36 38 39 40 41 43 44 45 47 48 49 51 51 52 53 53 52 50 50 49 48 45 44 40 35 34 33 32 33 33 34 35 36 36 37 37 36 36 35 33 33 35
30 31 33 35 37 39 41 43 45 47 49 50 52 53 54 55 55 53 51 50 48 46 44 43 38 33 32 31 31 31 32 33 34 35 35 35 34 34 33 32 31 31 32
27 28 30 32 35 37 40 42 45 47 49 52 53 54 54 54 54 52 50 48 47 44 42 40 36 32 31 30 30 31 32 33 33 33 33 32 32 31 31 31 30 30 31
28 29 30 32 34 36 39 41 44 47 49 52 54 54 55 54 53 51 49 46 44 42 41 39 37 33 31 30 30 31 31 31 31 31 30 31 31 31 30 30 30 30 31
30 31 32 33 35 37 39 41 42 44 47 49 51 52 52 52 52 50 49 47 44 42 40 39 36 33 31 31 31 31 31 30 30 29 29 30 31 31 31 31 31 31 32
31 32 33 34 36 37 38 39 40 41 42 43 44 45 45 45 46 46 45 43 41 40 38 36 34 32 31 31 31 30 30 29 29 29 30 31 32 32 32 33 33 33 33
32 33 33 34 35 36 37 37 38 38 37 37 37 36 37 37 38 39 39 39 39 38 37 34 32 32 31 31 30 29 28 28 29 30 31 32 32 33 34 34 35 35 34
32 33 33 33 34 34 34 33 33 33 31 30 30 30 30 31 32 32 34 35 35 35 34 31 30 30 29 29 28 28 28 28 29 30 31 32 33 34 34 35 36 36 35
32 32 32 32 32 31 31 30 29 28 26 25 24 24 24 25 27 28 31 32 31 30 29 28 28 27 26 26 26 27 27 28 29 30 31 32 33 34 35 35 36 36 36
31 31 30 29 29 28 27 26 25 24 23 22 20 19 20 20 21 22 23 24 24 25 25 26 26 25 25 25 25 26 27 27 28 29 30 31 33 33 34 35 35 36 36
30 28 27 27 26 25 24 23 22 20 19 18 18 17 16 16 16 18 19 19 20 21 21 22 22 22 23 23 24 24 25 26 27 28 29 30 31 32 33 34 34 34 35
28 26 25 25 24 23 22 20 19 18 17 17 16 15 15 15 16 16 15 15 16 17 17 18 18 19 20 20 21 21 22 23 24 25 26 28 29 30 30 31 32 32 33
26 25 24 23 22 21 20 18 18 17 15 14 13 13 13 13 13 12 12 11 12 13 13 14 15 16 17 17 18 18 19 20 22 23 24 25 25 26 27 28 28 29 30
26 25 24 23 21 20 18 17 16 15 14 12 11 11 10 10 11 11 11 11 11 12 12 13 13 13 14 14 14 15 17 18 19 20 20 21 22 23 24 25 26 27 28
27 25 24 22 20 18 17 15 14 13 12 11 11 10 10 10 11 11 11 11 11 11 11 12 12 12 12 12 13 14 14 15 15 16 17 18 20 21 23 24 26 27 28
27 26 24 22 20 18 16 14 13 12 11 11 10 10 10 10 11 11 10 10 11 11 11 11 11 11 11 11 11 12 12 13 14 15 17 18 20 22 23 25 27 29 30
27 26 24 23 21 19 17 15 13 12 11 10 10 10 9 10 10 9 10 10 10 11 10 10 10 10 10 10 11 11 13 14 15 16 17 18 20 22 23 25 26 27 28
27 26 26 24 23 21 18 16 14 13 12 11 10 9 8 8 9 9 10 11 11 10 10 10 10 10 11 11 12 12 13 14 15 16 17 18 20 21 23 23 24 25 25
28 27 27 26 24 22 20 17 15 14 13 12 11 10 9 8 9 9 10 10 11 11 11 11 11 11 12 13 13 13 14 15 15 16 17 18 20 21 23 24 24 24 24
29 27 27 27 26 25 23 20 18 16 14 13 12 11 11 10 10 10 10 11 12 12 12 12 13 13 14 14 14 14 15 15 15 16 17 18 20 21 23 24 24 24 24
30 28 28 28 27 27 25 23 21 18 17 16 15 14 13 12 12 12 12 12 12 13 13 13 14 14 14 15 15 15 15 15 15 15 16 18 20 21 23 24 24 25 25
Wind_Direction
268 268 268 268 269 269 270 269 269 268 267 265 265 265 263 264 265 266 268 269 268 267 267 267 267 267 266 266 266 267 268 267 269 271 273 275 277 279 282 284 286 286 285
267 267 266 267 268 269 269 269 268 267 267 266 266 265 265 266 268 269 270 270 269 267 267 266 266 266 267 266 267 267 265 267 270 273 274 276 278 280 282 284 285 285 284
267 267 266 266 267 267 268 268 269 268 267 266 268 268 268 268 269 270 272 272 271 271 269 266 265 267 267 266 267 266 265 267 269 272 275 278 279 281 284 285 285 284 283
266 266 266 266 266 266 267 267 268 270 271 272 272 272 273 274 275 274 274 276 275 274 272 272 271 267 265 263 262 262 262 264 267 271 276 280 283 284 285 285 285 283 282
268 268 268 267 267 267 268 269 270 271 272 273 274 274 274 274 275 277 278 281 279 277 276 275 272 267 262 260 261 260 262 263 268 272 276 281 285 287 288 287 285 283 282
271 271 270 270 270 271 271 271 271 272 272 273 274 274 274 274 275 277 280 280 281 280 278 274 272 264 261 259 260 262 263 267 271 274 278 281 284 286 287 287 285 283 281
274 274 275 275 275 275 274 274 274 274 273 273 273 273 273 274 274 277 279 280 280 278 275 273 268 261 258 259 262 264 267 270 273 276 279 281 283 285 286 286 285 284 281
278 279 280 280 279 278 278 277 277 276 275 273 272 271 271 272 273 274 275 275 274 274 271 268 261 259 259 261 264 267 270 273 274 276 278 279 281 282 284 285 285 284 283
283 283 284 284 285 284 283 282 281 279 277 275 272 270 269 269 269 270 270 271 271 271 269 264 260 257 258 260 264 268 271 273 274 275 276 278 279 280 281 283 284 284 284
286 288 289 290 291 291 291 289 287 284 281 278 274 271 269 268 266 266 265 266 268 269 267 260 257 256 258 262 266 268 270 272 272 273 275 277 278 279 280 282 283 284 283
289 292 294 296 297 298 298 296 293 289 285 282 277 271 268 265 262 260 260 261 261 262 260 256 256 256 259 262 265 268 270 271 272 274 275 276 277 278 279 280 280 282 282
291 294 297 299 301 303 303 300 297 293 288 285 279 272 267 263 258 256 256 256 256 256 256 254 255 256 259 262 266 268 269 271 273 274 275 276 277 277 278 279 279 279 281
291 295 299 301 303 305 305 304 302 298 292 286 279 273 267 259 256 250 251 251 251 251 249 249 254 258 262 264 266 268 270 272 273 274 275 276 277 277 277 277 277 278 279
291 295 298 302 305 307 308 307 305 301 295 288 283 273 265 258 254 250 247 245 246 247 246 248 254 258 262 264 268 270 272 274 275 276 277 277 277 277 277 277 277 277 278
289 292 297 302 306 308 310 309 307 303 297 291 288 279 272 266 257 249 247 246 244 243 245 249 254 258 262 266 269 272 274 276 277 277 278 278 278 278 278 278 277 277 278
288 291 295 301 305 308 310 310 310 306 303 298 292 282 275 273 264 258 254 248 246 245 248 252 256 261 265 267 269 273 275 277 278 279 279 280 280 280 280 280 279 279 279
286 288 292 298 303 307 310 310 311 307 303 298 290 283 276 275 274 268 261 258 254 251 253 258 261 263 266 269 272 275 276 277 279 281 282 284 284 284 284 283 282 282 281
286 286 287 292 299 303 306 309 308 306 303 298 290 284 278 274 274 273 272 267 265 261 259 262 264 266 267 269 273 275 276 278 281 284 286 288 289 289 288 288 289 288 287
286 285 284 286 292 297 300 305 305 305 306 303 295 287 282 276 271 267 270 268 264 262 260 258 260 261 263 267 270 274 277 280 283 286 289 290 292 293 293 293 292 291 290
287 283 280 280 283 289 294 298 300 298 298 296 291 283 276 272 265 260 261 260 257 254 251 250 252 257 260 264 269 273 277 281 285 289 291 294 296 297 297 296 295 294 292
284 279 274 274 276 279 284 289 291 290 288 287 284 278 269 263 256 253 253 251 247 245 243 245 248 253 259 265 269 272 276 283 288 292 295 297 299 300 300 299 299 297 295
282 276 269 268 270 272 275 278 280 281 281 279 277 273 264 254 248 243 242 240 239 239 241 243 244 251 259 264 268 274 281 287 292 295 298 301 304 305 306 306 306 304 302
281 274 266 262 263 264 266 270 271 271 271 270 269 266 260 252 243 238 236 236 235 234 238 243 249 256 261 265 271 278 284 289 293 297 303 307 310 313 314 315 314 312 309
281 271 265 259 257 257 258 261 264 264 262 260 258 254 250 244 237 232 231 232 235 239 243 250 255 258 263 269 274 279 284 289 293 299 306 312 317 320 321 321 320 318 315
279 272 265 258 253 252 252 253 255 257 255 253 250 247 244 239 235 233 232 235 239 244 248 253 257 262 267 270 274 279 283 287 293 300 308 315 321 323 324 324 324 323 321
277 272 264 257 252 249 247 247 249 250 250 249 248 246 244 242 240 239 239 240 243 246 251 256 260 264 267 269 272 276 280 284 291 300 310 317 322 324 326 326 326 325 324
Height
5884 5884 5884 5883 5882 5881 5881 5881 5880 5880 5879 5877 5877 5875 5874 5873 5872 5870 5868 5866 5865 5863 5863 5862 5861 5861 5861 5862 5862 5862 5861 5860 5860 5859 5859 5858 5857 5855 5854 5852 5850 5849 5848
5875 5874 5874 5874 5873 5872 5872 5871 5871 5871 5869 5869 5868 5866 5864 5864 5863 5861 5859 5857 5854 5853 5852 5851 5851 5851 5851 5852 5852 5853 5853 5852 5851 5851 5850 5850 5850 5847 5846 5844 5842 5840 5839
5865 5865 5865 5865 5864 5863 5863 5862 5862 5861 5860 5859 5858 5856 5854 5854 5853 5851 5849 5846 5843 5842 5841 5840 5841 5841 5842 5843 5843 5844 5844 5844 5844 5842 5841 5841 5841 5839 5838 5835 5833 5831 5829
5857 5856 5856 5856 5855 5855 5854 5853 5852 5851 5850 5848 5847 5845 5844 5843 5843 5840 5838 5836 5834 5832 5831 5831 5830 5830 5831 5832 5833 5834 5835 5836 5835 5834 5832 5831 5829 5828 5828 5827 5823 5821 5819
5848 5848 5847 5847 5846 5846 5844 5843 5842 5841 5839 5838 5836 5834 5833 5833 5831 5829 5827 5826 5824 5822 5821 5821 5821 5821 5821 5822 5824 5826 5826 5827 5826 5826 5824 5822 5820 5818 5816 5817 5815 5811 5809
5839 5838 5837 5837 5836 5835 5834 5832 5831 5829 5828 5826 5824 5822 5821 5820 5819 5818 5816 5815 5814 5811 5811 5811 5810 5811 5812 5813 5815 5817 5817 5817 5817 5816 5815 5814 5812 5810 5808 5807 5805 5803 5801
5830 5829 5828 5827 5825 5824 5822 5820 5818 5817 5815 5813 5811 5809 5808 5807 5806 5806 5805 5804 5803 5801 5800 5801 5801 5801 5802 5804 5806 5807 5807 5808 5808 5807 5805 5804 5803 5801 5800 5798 5797 5795 5793
5822 5820 5819 5817 5815 5813 5811 5808 5805 5803 5800 5798 5796 5795 5794 5793 5793 5793 5793 5792 5792 5791 5790 5790 5791 5792 5794 5795 5797 5798 5798 5798 5798 5797 5796 5795 5794 5793 5792 5791 5789 5788 5786
5814 5812 5810 5807 5805 5802 5799 5795 5792 5788 5785 5783 5780 5779 5779 5778 5779 5779 5779 5780 5780 5781 5781 5781 5782 5783 5785 5786 5788 5788 5789 5789 5789 5789 5788 5787 5786 5785 5784 5783 5781 5781 5779
5806 5803 5801 5797 5794 5790 5786 5781 5777 5773 5770 5766 5764 5763 5763 5763 5763 5765 5766 5768 5769 5770 5771 5771 5773 5774 5776 5778 5779 5780 5780 5780 5780 5780 5779 5778 5778 5777 5776 5775 5773 5772 5771
5798 5794 5791 5787 5783 5778 5773 5768 5763 5759 5755 5751 5749 5748 5747 5748 5749 5751 5753 5756 5758 5759 5761 5761 5763 5765 5767 5769 5770 5771 5772 5772 5772 5771 5771 5770 5769 5768 5767 5766 5765 5764 5762
5789 5785 5781 5777 5772 5767 5761 5756 5751 5746 5742 5739 5736 5735 5734 5735 5736 5738 5741 5744 5747 5749 5751 5753 5755 5757 5759 5760 5762 5763 5763 5763 5763 5763 5762 5761 5761 5760 5759 5758 5757 5755 5753
5780 5776 5772 5767 5762 5757 5751 5745 5741 5736 5732 5729 5726 5725 5724 5725 5726 5728 5731 5734 5736 5739 5741 5744 5746 5748 5750 5752 5753 5754 5754 5754 5754 5754 5753 5753 5752 5751 5750 5749 5748 5746 5745
5771 5768 5763 5759 5753 5748 5742 5737 5733 5729 5725 5722 5720 5718 5717 5718 5718 5720 5722 5724 5727 5730 5732 5735 5738 5740 5742 5744 5745 5746 5746 5746 5746 5745 5745 5744 5743 5743 5741 5740 5739 5737 5736
5763 5759 5755 5751 5745 5740 5735 5731 5727 5723 5720 5717 5715 5713 5713 5713 5713 5714 5716 5717 5720 5723 5726 5728 5731 5733 5735 5736 5737 5738 5738 5738 5738 5737 5736 5736 5735 5733 5732 5731 5730 5729 5727
5754 5751 5747 5743 5739 5734 5729 5725 5722 5718 5715 5713 5711 5710 5709 5709 5709 5710 5711 5713 5714 5717 5719 5722 5724 5726 5728 5729 5730 5730 5730 5730 5730 5729 5728 5727 5726 5725 5724 5723 5721 5720 5718
5745 5743 5740 5736 5733 5728 5724 5721 5717 5715 5712 5710 5708 5707 5706 5706 5706 5707 5707 5708 5710 5712 5714 5716 5718 5720 5721 5722 5723 5723 5723 5723 5723 5722 5721 5720 5719 5717 5716 5714 5712 5711 5709
5737 5735 5732 5730 5727 5723 5720 5717 5714 5711 5709 5707 5705 5704 5704 5703 5703 5704 5705 5705 5707 5708 5710 5711 5713 5714 5716 5717 5717 5718 5717 5717 5717 5716 5715 5713 5712 5710 5709 5707 5705 5703 5701
5729 5727 5725 5723 5720 5718 5715 5712 5710 5708 5706 5704 5702 5701 5701 5701 5701 5701 5702 5702 5703 5705 5706 5707 5709 5710 5711 5711 5712 5712 5712 5712 5711 5710 5709 5708 5707 5705 5703 5701 5698 5696 5694
5721 5719 5718 5716 5714 5712 5710 5708 5706 5704 5702 5701 5699 5698 5698 5698 5698 5698 5699 5699 5700 5701 5702 5704 5705 5705 5706 5707 5707 5708 5708 5707 5706 5706 5705 5703 5701 5699 5697 5695 5692 5690 5687
5713 5711 5710 5709 5708 5707 5705 5703 5702 5701 5699 5698 5696 5695 5695 5695 5695 5695 5696 5696 5697 5698 5699 5700 5701 5702 5703 5703 5703 5704 5704 5703 5702 5701 5700 5698 5696 5694 5692 5689 5686 5683 5679
5705 5703 5702 5702 5702 5701 5700 5699 5698 5696 5695 5694 5693 5692 5692 5692 5692 5692 5693 5694 5695 5695 5696 5697 5698 5699 5699 5700 5700 5700 5700 5699 5698 5697 5696 5694 5692 5689 5686 5683 5679 5676 5672
5696 5695 5694 5694 5695 5695 5694 5694 5693 5692 5691 5691 5690 5689 5689 5689 5689 5690 5690 5691 5692 5693 5694 5694 5695 5695 5696 5696 5696 5696 5696 5695 5694 5693 5691 5689 5687 5684 5680 5677 5673 5669 5666
5687 5686 5686 5686 5687 5687 5688 5688 5688 5687 5687 5687 5686 5686 5686 5686 5686 5687 5687 5688 5689 5690 5690 5691 5691 5692 5692 5692 5692 5692 5691 5690 5689 5688 5686 5684 5681 5678 5674 5671 5667 5663 5660
5678 5677 5677 5677 5678 5680 5681 5681 5682 5682 5682 5682 5682 5682 5682 5683 5683 5684 5684 5685 5686 5687 5687 5687 5687 5688 5688 5688 5688 5687 5687 5686 5685 5684 5682 5679 5676 5673 5669 5665 5662 5658 5654
5668 5668 5667 5668 5669 5671 5672 5674 5675 5676 5676 5677 5677 5678 5678 5679 5679 5680 5680 5681 5682 5682 5683 5683 5683 5683 5683 5683 5683 5683 5683 5682 5681 5679 5677 5674 5671 5668 5664 5660 5657 5653 5649